This is the latest recevied weather packets stored in our database for station/object SR5NLK-1. If no packets are shown the sender has not sent any weather packets the latest 1 day(s).
| Time | Temp. | Humidity | Pressure | Rain* | Wind** | Luminosity | Snow |
|---|---|---|---|---|---|---|---|
| 1777991072 | 32.78° C | 22% | 971.7 hPa | 0 mm | 4.47 m/s, 202° | - | - |
| 1777990959 | 32.78° C | 22% | 1013.5 hPa | 0 mm | 1.34 m/s, 202° | - | - |
| 1777990952 | 32.78° C | 22% | 1013.5 hPa | 0 mm | 1.34 m/s, 202° | - | - |
| 1777990653 | 32.78° C | 22% | 959.2 hPa | 0 mm | 1.79 m/s, 202° | - | - |
| 1777990352 | 32.22° C | 24% | 959.2 hPa | 0 mm | 1.79 m/s, 112° | - | - |
| 1777990059 | 31.11° C | 24% | - | 0 mm | 0 m/s | - | - |
| 1777990052 | 31.11° C | 24% | 1049.1 hPa | 0 mm | 0 m/s | - | - |
| 1777989752 | 30.56° C | 24% | 1045.9 hPa | 0 mm | 0.45 m/s, 157° | - | - |
| 1777989452 | 30° C | 23% | 1081.6 hPa | 0 mm | 0 m/s | - | - |
| 1777989152 | 30.56° C | 23% | 1036.5 hPa | 0 mm | 1.34 m/s, 270° | - | - |
| 1777989092 | 30.56° C | 24% | 1013.5 hPa | 0 mm | 0.45 m/s, 270° | - | - |
| 1777988853 | 30.56° C | 24% | 1052.2 hPa | 0 mm | 3.13 m/s, 270° | - | - |
| 1777988553 | 30.56° C | 25% | 1029.1 hPa | 0 mm | 0 m/s | - | - |
| 1777988253 | 30° C | 25% | 1010.4 hPa | 0 mm | 1.34 m/s, 270° | - | - |
| 1777987952 | 30° C | 23% | 1013.5 hPa | 0 mm | 0.45 m/s, 292° | - | - |
| 1777987652 | 30.56° C | 24% | 1100.3 hPa | 0 mm | 1.34 m/s, 292° | - | - |
| 1777987353 | 30.56° C | 24% | 997.9 hPa | 0 mm | 1.34 m/s, 270° | - | - |
| 1777987112 | 30.56° C | 24% | 1010.4 hPa | 0 mm | 1.34 m/s, 270° | - | - |
| 1777987052 | 30.56° C | 24% | 1019.8 hPa | 0 mm | 3.58 m/s, 202° | - | - |
| 1777986811 | 31.11° C | 23% | 968.6 hPa | 0 mm | 0.89 m/s, 247° | - | - |
| 1777986753 | 31.11° C | 23% | 968.6 hPa | 0 mm | 0.89 m/s, 247° | - | - |
| 1777986453 | 31.11° C | 22% | 1007.3 hPa | 0 mm | 4.47 m/s, 270° | - | - |
| 1777986153 | 31.67° C | 24% | 1049.1 hPa | 0 mm | 2.68 m/s, 180° | - | - |
| 1777985853 | 31.67° C | 23% | 1046 hPa | 0 mm | 1.34 m/s, 247° | - | - |
| 1777985553 | 32.22° C | 24% | 1049.1 hPa | 0 mm | 2.24 m/s, 202° | - | - |
* Rain latest hour (hover to see other rain measurements)
** Current wind speed in m/s (hover to see current wind gust speed)